PRIVATE WETTERSTATION BILLIGHEIM-ALLFELD                       ZURCK
Wetterdaten: Sonntag, 06.11.2016
Datum Zeit Temp. A. Temp. A. min Temp. A. max Feuchte A. Luftdruck Regen Wind Richtung Richtung Sonnenschein ET Solar Taupunkt Windchill Windben Empfang
06.11.2016 00:00 5,7 C 5,7 C 5,7 C 92 % 1001,4 hPa 0,0 l/m 1,6 km/h (1 Bft) W 270 0 min 0,000 mm 0 W/m 4,5 C 5,7 C 6,4 km/h (2 Bft) 97 %
06.11.2016 00:10 5,6 C 5,6 C 5,7 C 92 % 1001,5 hPa 0,0 l/m 0,0 km/h (0 Bft) W 270 0 min 0,000 mm 0 W/m 4,4 C 5,6 C 4,8 km/h (1 Bft) 98 %
06.11.2016 00:20 5,6 C 5,6 C 5,6 C 92 % 1001,4 hPa 0,0 l/m 0,0 km/h (0 Bft) N 0 0 min 0,000 mm 0 W/m 4,4 C 5,6 C 0,0 km/h (0 Bft) 97 %
06.11.2016 00:30 5,5 C 5,5 C 5,6 C 92 % 1001,3 hPa 0,0 l/m 1,6 km/h (1 Bft) W 270 0 min 0,000 mm 0 W/m 4,3 C 5,5 C 8,0 km/h (2 Bft) 98 %
06.11.2016 00:40 5,4 C 5,4 C 5,5 C 92 % 1001,3 hPa 0,0 l/m 0,0 km/h (0 Bft) W 270 0 min 0,000 mm 0 W/m 4,2 C 5,4 C 1,6 km/h (1 Bft) 98 %
06.11.2016 00:50 5,3 C 5,3 C 5,4 C 92 % 1001,2 hPa 0,0 l/m 1,6 km/h (1 Bft) W 270 0 min 0,000 mm 0 W/m 4,1 C 5,3 C 8,0 km/h (2 Bft) 97 %
06.11.2016 01:00 5,3 C 5,3 C 5,3 C 92 % 1001,4 hPa 0,0 l/m 0,0 km/h (0 Bft) W 270 0 min 0,000 mm 0 W/m 4,1 C 5,3 C 1,6 km/h (1 Bft) 97 %
06.11.2016 01:10 5,3 C 5,3 C 5,3 C 92 % 1001,4 hPa 0,0 l/m 1,6 km/h (1 Bft) W-SW 247 0 min 0,000 mm 0 W/m 4,1 C 5,3 C 9,7 km/h (2 Bft) 97 %
06.11.2016 01:20 5,3 C 5,3 C 5,3 C 92 % 1001,5 hPa 0,0 l/m 1,6 km/h (1 Bft) SW 225 0 min 0,000 mm 0 W/m 4,1 C 5,3 C 8,0 km/h (2 Bft) 98 %
06.11.2016 01:30 5,2 C 5,2 C 5,3 C 92 % 1001,5 hPa 0,0 l/m 0,0 km/h (0 Bft) W-SW 247 0 min 0,000 mm 0 W/m 4,0 C 5,2 C 6,4 km/h (2 Bft) 97 %
06.11.2016 01:40 5,2 C 5,2 C 5,2 C 92 % 1001,4 hPa 0,0 l/m 0,0 km/h (0 Bft) W-SW 247 0 min 0,000 mm 0 W/m 4,0 C 5,2 C 4,8 km/h (1 Bft) 98 %
06.11.2016 01:50 5,1 C 5,1 C 5,2 C 92 % 1001,5 hPa 0,0 l/m 0,0 km/h (0 Bft) W-SW 247 0 min 0,000 mm 0 W/m 3,9 C 5,1 C 1,6 km/h (1 Bft) 97 %
06.11.2016 02:00 5,1 C 5,0 C 5,1 C 92 % 1001,5 hPa 0,0 l/m 0,0 km/h (0 Bft) N 0 0 min 0,000 mm 0 W/m 3,9 C 5,1 C 0,0 km/h (0 Bft) 98 %
06.11.2016 02:10 5,1 C 5,1 C 5,1 C 92 % 1001,5 hPa 0,0 l/m 1,6 km/h (1 Bft) SW 225 0 min 0,000 mm 0 W/m 3,9 C 5,1 C 6,4 km/h (2 Bft) 98 %
06.11.2016 02:20 5,1 C 5,1 C 5,1 C 92 % 1001,5 hPa 0,0 l/m 0,0 km/h (0 Bft) SW 225 0 min 0,000 mm 0 W/m 3,9 C 5,1 C 1,6 km/h (1 Bft) 97 %
06.11.2016 02:30 5,1 C 5,1 C 5,1 C 92 % 1001,4 hPa 0,0 l/m 0,0 km/h (0 Bft) SW 225 0 min 0,000 mm 0 W/m 3,9 C 5,1 C 4,8 km/h (1 Bft) 98 %
06.11.2016 02:40 5,0 C 5,0 C 5,1 C 92 % 1001,0 hPa 0,0 l/m 0,0 km/h (0 Bft) SW 225 0 min 0,000 mm 0 W/m 3,8 C 5,0 C 4,8 km/h (1 Bft) 97 %
06.11.2016 02:50 4,9 C 4,9 C 5,0 C 92 % 1001,1 hPa 0,0 l/m 0,0 km/h (0 Bft) SW 225 0 min 0,000 mm 0 W/m 3,7 C 4,9 C 3,2 km/h (1 Bft) 98 %
06.11.2016 03:00 4,9 C 4,9 C 4,9 C 92 % 1001,1 hPa 0,0 l/m 0,0 km/h (0 Bft) SW 225 0 min 0,000 mm 0 W/m 3,7 C 4,9 C 4,8 km/h (1 Bft) 98 %
06.11.2016 03:10 4,8 C 4,8 C 4,9 C 92 % 1001,3 hPa 0,0 l/m 0,0 km/h (0 Bft) SW 225 0 min 0,000 mm 0 W/m 3,6 C 4,8 C 6,4 km/h (2 Bft) 96 %
06.11.2016 03:20 4,8 C 4,8 C 4,9 C 92 % 1001,2 hPa 0,0 l/m 3,2 km/h (1 Bft) W 270 0 min 0,000 mm 0 W/m 3,6 C 4,8 C 14,5 km/h (3 Bft) 97 %
06.11.2016 03:30 4,8 C 4,8 C 4,8 C 92 % 1001,1 hPa 0,0 l/m 3,2 km/h (1 Bft) W-SW 247 0 min 0,000 mm 0 W/m 3,6 C 4,8 C 9,7 km/h (2 Bft) 97 %
06.11.2016 03:40 4,8 C 4,8 C 4,8 C 92 % 1000,9 hPa 0,0 l/m 0,0 km/h (0 Bft) W 270 0 min 0,000 mm 0 W/m 3,6 C 4,8 C 8,0 km/h (2 Bft) 98 %
06.11.2016 03:50 4,8 C 4,8 C 4,8 C 92 % 1000,8 hPa 0,0 l/m 0,0 km/h (0 Bft) N 0 0 min 0,000 mm 0 W/m 3,6 C 4,8 C 0,0 km/h (0 Bft) 97 %
06.11.2016 04:00 4,7 C 4,7 C 4,8 C 92 % 1000,8 hPa 0,0 l/m 0,0 km/h (0 Bft) W 270 0 min 0,000 mm 0 W/m 3,5 C 4,7 C 1,6 km/h (1 Bft) 98 %
06.11.2016 04:10 4,7 C 4,7 C 4,7 C 92 % 1000,8 hPa 0,0 l/m 0,0 km/h (0 Bft) N 0 0 min 0,000 mm 0 W/m 3,5 C 4,7 C 0,0 km/h (0 Bft) 97 %
06.11.2016 04:20 4,7 C 4,7 C 4,7 C 92 % 1000,8 hPa 0,0 l/m 0,0 km/h (0 Bft) W 270 0 min 0,000 mm 0 W/m 3,5 C 4,7 C 1,6 km/h (1 Bft) 98 %
06.11.2016 04:30 4,7 C 4,7 C 4,7 C 92 % 1000,9 hPa 0,0 l/m 0,0 km/h (0 Bft) N 0 0 min 0,000 mm 0 W/m 3,5 C 4,7 C 0,0 km/h (0 Bft) 98 %
06.11.2016 04:40 4,7 C 4,7 C 4,7 C 92 % 1000,7 hPa 0,0 l/m 1,6 km/h (1 Bft) W 270 0 min 0,000 mm 0 W/m 3,5 C 4,7 C 4,8 km/h (1 Bft) 97 %
06.11.2016 04:50 4,7 C 4,7 C 4,7 C 92 % 1000,7 hPa 0,0 l/m 3,2 km/h (1 Bft) W-SW 247 0 min 0,000 mm 0 W/m 3,5 C 4,7 C 8,0 km/h (2 Bft) 98 %
06.11.2016 05:00 4,6 C 4,6 C 4,7 C 92 % 1000,7 hPa 0,0 l/m 0,0 km/h (0 Bft) S-SW 202 0 min 0,000 mm 0 W/m 3,4 C 4,6 C 3,2 km/h (1 Bft) 97 %
06.11.2016 05:10 4,6 C 4,6 C 4,6 C 92 % 1001,0 hPa 0,0 l/m 1,6 km/h (1 Bft) S-SW 202 0 min 0,000 mm 0 W/m 3,4 C 4,6 C 4,8 km/h (1 Bft) 99 %
06.11.2016 05:20 4,6 C 4,6 C 4,7 C 92 % 1001,0 hPa 0,0 l/m 0,0 km/h (0 Bft) S-SW 202 0 min 0,000 mm 0 W/m 3,4 C 4,6 C 1,6 km/h (1 Bft) 98 %
06.11.2016 05:30 4,7 C 4,6 C 4,7 C 92 % 1001,3 hPa 0,0 l/m 1,6 km/h (1 Bft) S-SW 202 0 min 0,000 mm 0 W/m 3,5 C 4,7 C 6,4 km/h (2 Bft) 98 %
06.11.2016 05:40 4,7 C 4,7 C 4,7 C 92 % 1001,2 hPa 0,0 l/m 4,8 km/h (1 Bft) S-SW 202 0 min 0,000 mm 0 W/m 3,5 C 4,7 C 9,7 km/h (2 Bft) 100 %
06.11.2016 05:50 4,7 C 4,7 C 4,7 C 92 % 1001,1 hPa 0,0 l/m 3,2 km/h (1 Bft) S-SW 202 0 min 0,000 mm 0 W/m 3,5 C 4,7 C 12,9 km/h (3 Bft) 100 %
06.11.2016 06:00 4,6 C 4,6 C 4,7 C 92 % 1000,8 hPa 0,0 l/m 0,0 km/h (0 Bft) SW 225 0 min 0,000 mm 0 W/m 3,4 C 4,6 C 6,4 km/h (2 Bft) 100 %
06.11.2016 06:10 4,6 C 4,6 C 4,6 C 92 % 1000,8 hPa 0,0 l/m 3,2 km/h (1 Bft) SW 225 0 min 0,000 mm 0 W/m 3,4 C 4,6 C 11,3 km/h (2 Bft) 100 %
06.11.2016 06:20 4,6 C 4,6 C 4,6 C 92 % 1000,9 hPa 0,0 l/m 1,6 km/h (1 Bft) W-SW 247 0 min 0,000 mm 0 W/m 3,4 C 4,6 C 8,0 km/h (2 Bft) 100 %
06.11.2016 06:30 4,5 C 4,5 C 4,6 C 92 % 1000,8 hPa 0,0 l/m 3,2 km/h (1 Bft) W 270 0 min 0,000 mm 0 W/m 3,3 C 4,5 C 9,7 km/h (2 Bft) 100 %
06.11.2016 06:40 4,5 C 4,5 C 4,5 C 92 % 1001,0 hPa 0,0 l/m 1,6 km/h (1 Bft) W-SW 247 0 min 0,000 mm 0 W/m 3,3 C 4,5 C 14,5 km/h (3 Bft) 100 %
06.11.2016 06:50 4,5 C 4,5 C 4,5 C 92 % 1000,9 hPa 0,0 l/m 4,8 km/h (1 Bft) W-SW 247 0 min 0,000 mm 0 W/m 3,3 C 4,5 C 11,3 km/h (2 Bft) 100 %
06.11.2016 07:00 4,4 C 4,4 C 4,5 C 92 % 1000,8 hPa 0,0 l/m 6,4 km/h (2 Bft) W-SW 247 0 min 0,000 mm 0 W/m 3,2 C 4,4 C 11,3 km/h (2 Bft) 100 %
06.11.2016 07:10 4,4 C 4,4 C 4,4 C 92 % 1001,0 hPa 0,0 l/m 3,2 km/h (1 Bft) W-SW 247 0 min 0,000 mm 0 W/m 3,2 C 4,4 C 11,3 km/h (2 Bft) 100 %
06.11.2016 07:20 4,4 C 4,4 C 4,4 C 92 % 1000,9 hPa 0,0 l/m 4,8 km/h (1 Bft) W-SW 247 0 min 0,000 mm 0 W/m 3,2 C 4,4 C 11,3 km/h (2 Bft) 100 %
06.11.2016 07:30 4,4 C 4,4 C 4,4 C 92 % 1000,9 hPa 0,0 l/m 3,2 km/h (1 Bft) W 270 0 min 0,000 mm 0 W/m 3,2 C 4,4 C 11,3 km/h (2 Bft) 100 %
06.11.2016 07:40 4,3 C 4,3 C 4,4 C 92 % 1001,2 hPa 0,0 l/m 4,8 km/h (1 Bft) W-SW 247 0 min 0,000 mm 0 W/m 3,1 C 4,3 C 11,3 km/h (2 Bft) 100 %
06.11.2016 07:50 4,3 C 4,3 C 4,4 C 92 % 1000,9 hPa 0,0 l/m 4,8 km/h (1 Bft) W 270 0 min 0,000 mm 5 W/m 3,1 C 4,3 C 14,5 km/h (3 Bft) 100 %
06.11.2016 08:00 4,3 C 4,3 C 4,4 C 92 % 1001,2 hPa 0,0 l/m 4,8 km/h (1 Bft) W 270 0 min 0,000 mm 7 W/m 3,1 C 4,3 C 11,3 km/h (2 Bft) 100 %
06.11.2016 08:10 4,4 C 4,3 C 4,4 C 92 % 1001,3 hPa 0,0 l/m 6,4 km/h (2 Bft) W-SW 247 0 min 0,000 mm 12 W/m 3,2 C 4,4 C 17,7 km/h (3 Bft) 100 %
06.11.2016 08:20 4,4 C 4,3 C 4,4 C 92 % 1001,3 hPa 0,0 l/m 1,6 km/h (1 Bft) W 270 0 min 0,000 mm 11 W/m 3,2 C 4,4 C 8,0 km/h (2 Bft) 100 %
06.11.2016 08:30 4,4 C 4,4 C 4,4 C 92 % 1001,3 hPa 0,0 l/m 3,2 km/h (1 Bft) W 270 0 min 0,000 mm 12 W/m 3,2 C 4,4 C 11,3 km/h (2 Bft) 100 %
06.11.2016 08:40 4,4 C 4,4 C 4,4 C 92 % 1001,3 hPa 0,0 l/m 1,6 km/h (1 Bft) W 270 0 min 0,000 mm 21 W/m 3,2 C 4,4 C 9,7 km/h (2 Bft) 100 %
06.11.2016 08:50 4,4 C 4,4 C 4,4 C 92 % 1001,5 hPa 0,0 l/m 3,2 km/h (1 Bft) W 270 0 min 0,000 mm 21 W/m 3,2 C 4,4 C 11,3 km/h (2 Bft) 100 %
06.11.2016 09:00 4,4 C 4,4 C 4,4 C 92 % 1001,5 hPa 0,0 l/m 3,2 km/h (1 Bft) W-SW 247 0 min 0,000 mm 26 W/m 3,2 C 4,4 C 11,3 km/h (2 Bft) 100 %
06.11.2016 09:10 4,5 C 4,4 C 4,5 C 92 % 1001,4 hPa 0,0 l/m 1,6 km/h (1 Bft) W-SW 247 0 min 0,000 mm 28 W/m 3,3 C 4,5 C 11,3 km/h (2 Bft) 100 %
06.11.2016 09:20 4,5 C 4,5 C 4,6 C 92 % 1001,6 hPa 0,0 l/m 3,2 km/h (1 Bft) SW 225 0 min 0,000 mm 30 W/m 3,3 C 4,5 C 11,3 km/h (2 Bft) 100 %
06.11.2016 09:30 4,6 C 4,5 C 4,6 C 92 % 1001,9 hPa 0,0 l/m 1,6 km/h (1 Bft) W-SW 247 0 min 0,000 mm 33 W/m 3,4 C 4,6 C 9,7 km/h (2 Bft) 100 %
06.11.2016 09:40 4,6 C 4,6 C 4,6 C 92 % 1001,7 hPa 0,0 l/m 0,0 km/h (0 Bft) SW 225 0 min 0,000 mm 49 W/m 3,4 C 4,6 C 1,6 km/h (1 Bft) 99 %
06.11.2016 09:50 4,7 C 4,6 C 4,7 C 92 % 1001,7 hPa 0,0 l/m 1,6 km/h (1 Bft) W 270 0 min 0,000 mm 53 W/m 3,5 C 4,7 C 16,1 km/h (3 Bft) 100 %
06.11.2016 10:00 4,7 C 4,7 C 4,7 C 92 % 1001,9 hPa 0,0 l/m 4,8 km/h (1 Bft) W-NW 292 0 min 0,025 mm 58 W/m 3,5 C 4,7 C 11,3 km/h (2 Bft) 89 %
06.11.2016 10:10 4,8 C 4,7 C 4,8 C 92 % 1001,5 hPa 0,0 l/m 3,2 km/h (1 Bft) W 270 0 min 0,000 mm 69 W/m 3,6 C 4,8 C 9,7 km/h (2 Bft) 100 %
06.11.2016 10:20 4,8 C 4,8 C 4,8 C 92 % 1001,6 hPa 0,0 l/m 1,6 km/h (1 Bft) W 270 0 min 0,000 mm 72 W/m 3,6 C 4,8 C 8,0 km/h (2 Bft) 100 %
06.11.2016 10:30 4,9 C 4,8 C 4,9 C 92 % 1001,9 hPa 0,0 l/m 3,2 km/h (1 Bft) W 270 0 min 0,000 mm 72 W/m 3,7 C 4,9 C 12,9 km/h (3 Bft) 100 %
06.11.2016 10:40 4,9 C 4,9 C 4,9 C 92 % 1002,1 hPa 0,0 l/m 3,2 km/h (1 Bft) W 270 0 min 0,000 mm 77 W/m 3,7 C 4,9 C 14,5 km/h (3 Bft) 100 %
06.11.2016 10:50 4,9 C 4,9 C 4,9 C 92 % 1002,1 hPa 0,0 l/m 4,8 km/h (1 Bft) W 270 0 min 0,000 mm 76 W/m 3,7 C 4,9 C 14,5 km/h (3 Bft) 100 %
06.11.2016 11:00 5,0 C 4,9 C 5,0 C 92 % 1002,0 hPa 0,0 l/m 6,4 km/h (2 Bft) W 270 0 min 0,025 mm 90 W/m 3,8 C 5,0 C 14,5 km/h (3 Bft) 100 %
06.11.2016 11:10 5,1 C 5,0 C 5,1 C 92 % 1002,0 hPa 0,0 l/m 4,8 km/h (1 Bft) W 270 0 min 0,000 mm 141 W/m 3,9 C 5,1 C 11,3 km/h (2 Bft) 100 %
06.11.2016 11:20 5,2 C 5,1 C 5,2 C 92 % 1001,8 hPa 0,0 l/m 3,2 km/h (1 Bft) W 270 0 min 0,000 mm 142 W/m 4,0 C 5,2 C 14,5 km/h (3 Bft) 100 %
06.11.2016 11:30 5,6 C 5,3 C 5,6 C 92 % 1001,8 hPa 0,0 l/m 3,2 km/h (1 Bft) W-SW 247 10 min 0,000 mm 241 W/m 4,4 C 5,6 C 11,3 km/h (2 Bft) 100 %
06.11.2016 11:40 6,1 C 5,6 C 6,1 C 92 % 1001,4 hPa 0,0 l/m 4,8 km/h (1 Bft) W-NW 292 10 min 0,000 mm 543 W/m 4,9 C 6,1 C 16,1 km/h (3 Bft) 100 %
06.11.2016 11:50 6,3 C 6,1 C 6,3 C 90 % 1001,3 hPa 0,0 l/m 6,4 km/h (2 Bft) W-NW 292 10 min 0,000 mm 186 W/m 4,8 C 6,3 C 17,7 km/h (3 Bft) 100 %
06.11.2016 12:00 6,6 C 6,3 C 6,6 C 90 % 1001,1 hPa 0,0 l/m 4,8 km/h (1 Bft) NW 315 10 min 0,102 mm 541 W/m 5,1 C 6,6 C 16,1 km/h (3 Bft) 100 %
06.11.2016 12:10 7,1 C 6,6 C 7,1 C 88 % 1001,0 hPa 0,0 l/m 4,8 km/h (1 Bft) NW 315 10 min 0,000 mm 578 W/m 5,2 C 7,1 C 14,5 km/h (3 Bft) 100 %
06.11.2016 12:20 6,9 C 6,9 C 7,1 C 86 % 1000,9 hPa 0,0 l/m 1,6 km/h (1 Bft) W-NW 292 0 min 0,000 mm 125 W/m 4,7 C 6,9 C 9,7 km/h (2 Bft) 100 %
06.11.2016 12:30 6,6 C 6,6 C 6,9 C 84 % 1001,2 hPa 0,0 l/m 4,8 km/h (1 Bft) W 270 0 min 0,000 mm 135 W/m 4,1 C 6,6 C 11,3 km/h (2 Bft) 100 %
06.11.2016 12:40 6,5 C 6,5 C 6,6 C 86 % 1001,2 hPa 0,0 l/m 3,2 km/h (1 Bft) W-NW 292 0 min 0,000 mm 104 W/m 4,3 C 6,5 C 9,7 km/h (2 Bft) 100 %
06.11.2016 12:50 6,4 C 6,4 C 6,5 C 85 % 1001,4 hPa 0,0 l/m 1,6 km/h (1 Bft) W-NW 292 0 min 0,000 mm 139 W/m 4,1 C 6,4 C 6,4 km/h (2 Bft) 100 %
06.11.2016 13:00 6,3 C 6,3 C 6,5 C 85 % 1001,3 hPa 0,0 l/m 0,9 km/h (0 Bft) W 273 0 min 0,051 mm 25 W/m 4,0 C 6,3 C 4,8 km/h (1 Bft) 100 %
06.11.2016 13:10 6,3 C 6,2 C 6,3 C 87 % 1001,3 hPa 0,0 l/m 1,1 km/h (1 Bft) W-SW 241 10 min 0,000 mm 163 W/m 4,3 C 6,3 C 8,0 km/h (2 Bft) 100 %
06.11.2016 13:20 6,4 C 6,2 C 6,4 C 87 % 1001,2 hPa 0,0 l/m 2,2 km/h (1 Bft) SW 228 0 min 0,000 mm 111 W/m 4,4 C 6,4 C 9,7 km/h (2 Bft) 100 %
06.11.2016 13:30 6,3 C 6,3 C 6,4 C 87 % 1001,4 hPa 0,0 l/m 7,3 km/h (2 Bft) SW 227 0 min 0,000 mm 70 W/m 4,3 C 5,5 C 20,9 km/h (4 Bft) 91 %
06.11.2016 13:40 5,9 C 5,9 C 6,3 C 86 % 1001,3 hPa 0,0 l/m 9,1 km/h (2 Bft) SW 223 0 min 0,000 mm 51 W/m 3,7 C 3,7 C 19,3 km/h (3 Bft) 100 %
06.11.2016 13:50 5,3 C 5,3 C 5,9 C 87 % 1001,3 hPa 0,2 l/m 7,7 km/h (2 Bft) W-SW 256 0 min 0,000 mm 47 W/m 3,3 C 4,2 C 20,9 km/h (4 Bft) 100 %
06.11.2016 14:00 4,8 C 4,8 C 5,3 C 88 % 1001,6 hPa 0,2 l/m 12,1 km/h (2 Bft) W-SW 242 0 min 0,000 mm 28 W/m 3,0 C 0,5 C 24,1 km/h (4 Bft) 100 %
06.11.2016 14:10 4,6 C 4,6 C 4,8 C 91 % 1001,4 hPa 0,4 l/m 1,9 km/h (1 Bft) W 281 10 min 0,051 mm 260 W/m 3,3 C 4,6 C 16,1 km/h (3 Bft) 100 %
06.11.2016 14:20 4,9 C 4,6 C 4,9 C 91 % 1001,1 hPa 0,0 l/m 1,5 km/h (1 Bft) SW 235 10 min 0,000 mm 311 W/m 3,6 C 4,9 C 9,7 km/h (2 Bft) 100 %
06.11.2016 14:30 5,3 C 4,9 C 5,3 C 91 % 1001,0 hPa 0,0 l/m 0,5 km/h (0 Bft) SW 223 10 min 0,000 mm 206 W/m 4,0 C 5,3 C 8,0 km/h (2 Bft) 100 %
06.11.2016 14:40 5,3 C 5,3 C 5,4 C 90 % 1001,2 hPa 0,0 l/m 0,5 km/h (0 Bft) SW 221 0 min 0,000 mm 77 W/m 3,8 C 5,3 C 9,7 km/h (2 Bft) 100 %
06.11.2016 14:50 5,1 C 5,1 C 5,3 C 89 % 1001,3 hPa 0,0 l/m 2,9 km/h (1 Bft) SW 214 0 min 0,000 mm 37 W/m 3,4 C 5,1 C 11,3 km/h (2 Bft) 100 %
06.11.2016 15:00 4,9 C 4,9 C 5,1 C 90 % 1001,3 hPa 0,0 l/m 0,9 km/h (0 Bft) S-SW 211 0 min 0,051 mm 72 W/m 3,4 C 4,9 C 11,3 km/h (2 Bft) 100 %
06.11.2016 15:10 4,9 C 4,9 C 4,9 C 91 % 1001,6 hPa 0,0 l/m 0,0 km/h (0 Bft) S-SW 211 0 min 0,000 mm 70 W/m 3,6 C 4,9 C 0,0 km/h (0 Bft) 100 %
06.11.2016 15:20 4,9 C 4,9 C 5,0 C 91 % 1001,6 hPa 0,0 l/m 0,0 km/h (0 Bft) S-SW 211 0 min 0,000 mm 62 W/m 3,6 C 4,9 C 1,6 km/h (1 Bft) 100 %
06.11.2016 15:30 5,0 C 4,9 C 5,0 C 91 % 1001,6 hPa 0,0 l/m 0,0 km/h (0 Bft) S-SW 211 0 min 0,000 mm 51 W/m 3,7 C 5,0 C 1,6 km/h (1 Bft) 100 %
06.11.2016 15:40 5,1 C 5,0 C 5,1 C 91 % 1001,5 hPa 0,0 l/m 0,8 km/h (0 Bft) S-SW 194 0 min 0,000 mm 44 W/m 3,8 C 5,1 C 8,0 km/h (2 Bft) 91 %
06.11.2016 15:50 5,0 C 5,0 C 5,1 C 92 % 1001,6 hPa 0,0 l/m 0,8 km/h (0 Bft) SW 229 0 min 0,000 mm 33 W/m 3,8 C 5,0 C 9,7 km/h (2 Bft) 100 %
06.11.2016 16:00 4,9 C 4,9 C 5,0 C 92 % 1001,7 hPa 0,0 l/m 5,4 km/h (1 Bft) W 274 0 min 0,025 mm 33 W/m 3,7 C 4,9 C 17,7 km/h (3 Bft) 100 %
06.11.2016 16:10 4,8 C 4,8 C 4,9 C 91 % 1001,6 hPa 0,0 l/m 6,1 km/h (2 Bft) W-NW 289 0 min 0,000 mm 28 W/m 3,5 C 4,8 C 16,1 km/h (3 Bft) 100 %
06.11.2016 16:20 4,6 C 4,6 C 4,9 C 91 % 1001,6 hPa 0,0 l/m 1,8 km/h (1 Bft) S-SW 206 0 min 0,000 mm 18 W/m 3,3 C 4,6 C 8,0 km/h (2 Bft) 100 %
06.11.2016 16:30 4,5 C 4,5 C 4,7 C 91 % 1001,7 hPa 0,0 l/m 2,2 km/h (1 Bft) S-SW 213 0 min 0,000 mm 14 W/m 3,2 C 4,5 C 9,7 km/h (2 Bft) 100 %
06.11.2016 16:40 4,2 C 4,2 C 4,5 C 91 % 1001,8 hPa 0,0 l/m 1,6 km/h (1 Bft) S-SW 195 0 min 0,000 mm 5 W/m 2,9 C 4,2 C 9,7 km/h (2 Bft) 100 %
06.11.2016 16:50 4,0 C 4,0 C 4,2 C 91 % 1001,7 hPa 0,0 l/m 6,9 km/h (2 Bft) S-SW 200 0 min 0,000 mm 0 W/m 2,7 C 3,5 C 14,5 km/h (3 Bft) 100 %
06.11.2016 17:00 3,7 C 3,7 C 4,0 C 91 % 1001,7 hPa 0,0 l/m 3,7 km/h (1 Bft) S-SW 194 0 min 0,000 mm 0 W/m 2,4 C 3,7 C 9,7 km/h (2 Bft) 100 %
06.11.2016 17:10 3,4 C 3,4 C 3,7 C 91 % 1001,8 hPa 0,0 l/m 1,6 km/h (1 Bft) S-SW 201 0 min 0,000 mm 0 W/m 2,1 C 3,4 C 8,0 km/h (2 Bft) 100 %
06.11.2016 17:20 3,3 C 3,3 C 3,4 C 92 % 1001,8 hPa 0,0 l/m 0,0 km/h (0 Bft) S-SW 201 0 min 0,000 mm 0 W/m 2,1 C 3,3 C 0,0 km/h (0 Bft) 100 %
06.11.2016 17:30 3,1 C 3,1 C 3,3 C 91 % 1002,0 hPa 0,0 l/m 0,0 km/h (0 Bft) S-SW 201 0 min 0,000 mm 0 W/m 1,8 C 3,1 C 0,0 km/h (0 Bft) 100 %
06.11.2016 17:40 2,9 C 2,9 C 3,1 C 92 % 1002,0 hPa 0,0 l/m 0,0 km/h (0 Bft) S-SW 201 0 min 0,000 mm 0 W/m 1,7 C 2,9 C 0,0 km/h (0 Bft) 100 %
06.11.2016 17:50 2,8 C 2,8 C 2,9 C 92 % 1002,1 hPa 0,0 l/m 0,0 km/h (0 Bft) S-SW 201 0 min 0,000 mm 0 W/m 1,6 C 2,8 C 0,0 km/h (0 Bft) 100 %
06.11.2016 18:00 2,7 C 2,7 C 2,8 C 92 % 1002,2 hPa 0,0 l/m 0,0 km/h (0 Bft) S-SW 201 0 min 0,000 mm 0 W/m 1,5 C 2,7 C 0,0 km/h (0 Bft) 100 %
06.11.2016 18:10 2,7 C 2,7 C 2,7 C 92 % 1002,3 hPa 0,0 l/m 0,0 km/h (0 Bft) S-SW 201 0 min 0,000 mm 0 W/m 1,5 C 2,7 C 0,0 km/h (0 Bft) 100 %
06.11.2016 18:20 2,6 C 2,6 C 2,7 C 92 % 1002,4 hPa 0,0 l/m 0,0 km/h (0 Bft) S 175 0 min 0,000 mm 0 W/m 1,4 C 2,6 C 1,6 km/h (1 Bft) 100 %
06.11.2016 18:30 2,7 C 2,6 C 2,7 C 92 % 1002,5 hPa 0,0 l/m 0,0 km/h (0 Bft) O-SO 109 0 min 0,000 mm 0 W/m 1,5 C 2,7 C 0,0 km/h (0 Bft) 100 %
06.11.2016 18:40 3,0 C 2,7 C 3,0 C 92 % 1002,5 hPa 0,0 l/m 0,0 km/h (0 Bft) O-SO 109 0 min 0,000 mm 0 W/m 1,8 C 3,0 C 0,0 km/h (0 Bft) 100 %
06.11.2016 18:50 3,1 C 3,0 C 3,1 C 92 % 1002,4 hPa 0,0 l/m 0,0 km/h (0 Bft) SO 129 0 min 0,000 mm 0 W/m 1,9 C 3,1 C 0,0 km/h (0 Bft) 100 %
06.11.2016 19:00 2,8 C 2,8 C 3,1 C 92 % 1002,5 hPa 0,0 l/m 0,4 km/h (0 Bft) S-SO 150 0 min 0,000 mm 0 W/m 1,6 C 2,8 C 6,4 km/h (2 Bft) 100 %
06.11.2016 19:10 2,7 C 2,7 C 2,8 C 92 % 1002,5 hPa 0,0 l/m 1,9 km/h (1 Bft) S-SO 155 0 min 0,000 mm 0 W/m 1,5 C 2,7 C 6,4 km/h (2 Bft) 100 %
06.11.2016 19:20 2,6 C 2,6 C 2,7 C 92 % 1002,5 hPa 0,0 l/m 0,3 km/h (0 Bft) S-SO 155 0 min 0,000 mm 0 W/m 1,4 C 2,6 C 4,8 km/h (1 Bft) 100 %
06.11.2016 19:30 2,4 C 2,4 C 2,6 C 92 % 1002,6 hPa 0,0 l/m 0,4 km/h (0 Bft) S-SO 155 0 min 0,000 mm 0 W/m 1,2 C 2,4 C 4,8 km/h (1 Bft) 100 %
06.11.2016 19:40 2,3 C 2,3 C 2,4 C 92 % 1002,7 hPa 0,0 l/m 0,5 km/h (0 Bft) S-SO 155 0 min 0,000 mm 0 W/m 1,1 C 2,3 C 4,8 km/h (1 Bft) 100 %
06.11.2016 19:50 2,3 C 2,3 C 2,3 C 92 % 1002,5 hPa 0,0 l/m 0,0 km/h (0 Bft) S-SO 155 0 min 0,000 mm 0 W/m 1,1 C 2,3 C 0,0 km/h (0 Bft) 100 %
06.11.2016 20:00 2,1 C 2,1 C 2,3 C 92 % 1002,7 hPa 0,2 l/m 0,0 km/h (0 Bft) S-SO 155 0 min 0,000 mm 0 W/m 0,9 C 2,1 C 1,6 km/h (1 Bft) 100 %
06.11.2016 20:10 2,0 C 2,0 C 2,1 C 92 % 1002,8 hPa 0,0 l/m 0,0 km/h (0 Bft) S-SO 156 0 min 0,000 mm 0 W/m 0,8 C 2,0 C 0,0 km/h (0 Bft) 100 %
06.11.2016 20:20 1,9 C 1,9 C 2,0 C 92 % 1002,8 hPa 0,0 l/m 0,0 km/h (0 Bft) S-SO 156 0 min 0,000 mm 0 W/m 0,7 C 1,9 C 0,0 km/h (0 Bft) 100 %
06.11.2016 20:30 1,8 C 1,8 C 1,9 C 92 % 1003,0 hPa 0,0 l/m 0,0 km/h (0 Bft) S 179 0 min 0,000 mm 0 W/m 0,6 C 1,8 C 0,0 km/h (0 Bft) 100 %
06.11.2016 20:40 1,8 C 1,8 C 1,8 C 92 % 1003,1 hPa 0,0 l/m 1,7 km/h (1 Bft) S-SW 209 0 min 0,000 mm 0 W/m 0,6 C 1,8 C 8,0 km/h (2 Bft) 100 %
06.11.2016 20:50 1,6 C 1,6 C 1,8 C 92 % 1003,2 hPa 0,0 l/m 1,9 km/h (1 Bft) S 188 0 min 0,000 mm 0 W/m 0,4 C 1,6 C 6,4 km/h (2 Bft) 100 %
06.11.2016 21:00 1,6 C 1,5 C 1,6 C 92 % 1003,3 hPa 0,0 l/m 0,0 km/h (0 Bft) S 188 0 min 0,000 mm 0 W/m 0,4 C 1,6 C 0,0 km/h (0 Bft) 100 %
06.11.2016 21:10 1,6 C 1,6 C 1,6 C 92 % 1003,4 hPa 0,0 l/m 0,0 km/h (0 Bft) N 0 0 min 0,000 mm 0 W/m 0,4 C 1,6 C 0,0 km/h (0 Bft) 100 %
06.11.2016 21:20 1,4 C 1,4 C 1,6 C 92 % 1003,6 hPa 0,0 l/m 0,0 km/h (0 Bft) N 0 0 min 0,000 mm 0 W/m 0,2 C 1,4 C 0,0 km/h (0 Bft) 100 %
06.11.2016 21:30 1,4 C 1,4 C 1,4 C 92 % 1003,5 hPa 0,0 l/m 0,0 km/h (0 Bft) N 0 0 min 0,000 mm 0 W/m 0,2 C 1,4 C 0,0 km/h (0 Bft) 100 %
06.11.2016 21:40 1,4 C 1,4 C 1,4 C 92 % 1003,4 hPa 0,0 l/m 0,0 km/h (0 Bft) S 180 0 min 0,000 mm 0 W/m 0,2 C 1,4 C 1,6 km/h (1 Bft) 100 %
06.11.2016 21:50 1,4 C 1,3 C 1,4 C 92 % 1003,5 hPa 0,0 l/m 3,2 km/h (1 Bft) SO 135 0 min 0,000 mm 0 W/m 0,2 C 1,4 C 8,0 km/h (2 Bft) 100 %
06.11.2016 22:00 1,4 C 1,3 C 1,4 C 92 % 1003,5 hPa 0,0 l/m 3,2 km/h (1 Bft) SO 135 0 min 0,000 mm 0 W/m 0,2 C 1,4 C 6,4 km/h (2 Bft) 100 %
06.11.2016 22:10 1,4 C 1,4 C 1,4 C 92 % 1003,5 hPa 0,0 l/m 0,0 km/h (0 Bft) SO 135 0 min 0,000 mm 0 W/m 0,2 C 1,4 C 6,4 km/h (2 Bft) 100 %
06.11.2016 22:20 1,2 C 1,2 C 1,4 C 92 % 1003,6 hPa 0,0 l/m 1,6 km/h (1 Bft) SO 135 0 min 0,000 mm 0 W/m 0,0 C 1,2 C 4,8 km/h (1 Bft) 100 %
06.11.2016 22:30 1,1 C 1,1 C 1,2 C 92 % 1003,7 hPa 0,0 l/m 3,2 km/h (1 Bft) SO 135 0 min 0,000 mm 0 W/m -0,1 C 1,1 C 4,8 km/h (1 Bft) 100 %
06.11.2016 22:40 1,1 C 1,1 C 1,1 C 92 % 1003,7 hPa 0,0 l/m 1,6 km/h (1 Bft) SO 135 0 min 0,000 mm 0 W/m -0,1 C 1,1 C 4,8 km/h (1 Bft) 100 %
06.11.2016 22:50 1,2 C 1,1 C 1,2 C 92 % 1003,6 hPa 0,0 l/m 3,2 km/h (1 Bft) SO 135 0 min 0,000 mm 0 W/m 0,0 C 1,2 C 6,4 km/h (2 Bft) 100 %
06.11.2016 23:00 1,2 C 1,2 C 1,2 C 92 % 1003,5 hPa 0,0 l/m 1,6 km/h (1 Bft) SO 135 0 min 0,000 mm 0 W/m 0,0 C 1,2 C 6,4 km/h (2 Bft) 100 %
06.11.2016 23:10 1,3 C 1,2 C 1,3 C 92 % 1003,7 hPa 0,0 l/m 1,6 km/h (1 Bft) SO 135 0 min 0,000 mm 0 W/m 0,1 C 1,3 C 6,4 km/h (2 Bft) 100 %
06.11.2016 23:20 1,3 C 1,3 C 1,3 C 92 % 1003,7 hPa 0,0 l/m 1,6 km/h (1 Bft) SO 135 0 min 0,000 mm 0 W/m 0,1 C 1,3 C 6,4 km/h (2 Bft) 100 %
06.11.2016 23:30 1,3 C 1,3 C 1,3 C 92 % 1003,8 hPa 0,0 l/m 0,0 km/h (0 Bft) SO 135 0 min 0,000 mm 0 W/m 0,1 C 1,3 C 4,8 km/h (1 Bft) 100 %
06.11.2016 23:40 1,2 C 1,2 C 1,3 C 92 % 1003,8 hPa 0,0 l/m 1,6 km/h (1 Bft) SO 135 0 min 0,000 mm 0 W/m 0,0 C 1,2 C 6,4 km/h (2 Bft) 99 %
06.11.2016 23:50 1,1 C 1,1 C 1,2 C 92 % 1004,0 hPa 0,0 l/m 0,0 km/h (0 Bft) SO 135 0 min 0,000 mm 0 W/m -0,1 C 1,1 C 4,8 km/h (1 Bft) 100 %
_ Min-Zeit 22:30 22:30 22:40 12:30 04:40 - 00:10 - - - - - 22:30 14:00 00:20 10:00
Minimum _ 1,1 C 1,1 C 1,1 C 84 % 1000,7 hPa - 0,0 km/h (0 Bft) - - - - - -0,1 C 0,5 C 0,0 km/h (0 Bft) 89 %
_ Max-Zeit 12:10 12:20 12:10 00:00 23:50 14:10 14:00 - - 11:30 12:00 12:10 12:10 12:10 14:00 05:40
Maximum _ 7,1 C 6,9 C 7,1 C 92 % 1004,0 hPa 0,4 l/m 12,1 km/h
W-SW (2 Bft)
- - 10 min 0,102 mm 578 W/m 5,2 C 7,1 C 24,1 km/h
W-SW (4 Bft)
100 %
Durchschnitt _ 4,2 C 4,1 C 4,2 C 91 % 1001,8 hPa #1,0 l/m 2,0 km/h (1 Bft) W - #1:30 h #0,330 mm 102 W/m 2,9 C 4,1 C 7,5 km/h (2 Bft) 99 %
PRIVATE WETTERSTATION BILLIGHEIM-ALLFELD - www.neckar-odenwald-wetter.de - Holger Sonntag